Weather History for EGPH - November, 2013

Change the Weather History Date:

Thursday, November 21, 2013

  Actual Average Record
Temperature  
Mean Temperature 34 °F -  
Max Temperature 41 °F 45 °F 57 °F (2011)
Min Temperature 26 °F 35 °F 19 °F (2004)
Degree Days  
Heating Degree Days 32    
Moisture  
Dew Point 29 °F    
Average Humidity 75    
Maximum Humidity 93    
Minimum Humidity 61    
Precipitation  
Precipitation 0.00 in 0.08 in - ()
Sea Level Pressure  
Sea Level Pressure 29.99 in    
Wind  
Wind Speed 6 mph ()    
Max Wind Speed 12 mph    
Max Gust Speed -    
Visibility 6.2 miles    
Events      
Averages and records for this station are not official NWS values.
T = Trace of Precipitation, MM = Missing Value Source: Averaged Metar Reports

Daily Weather History Graph

Daily Weather History Graph

Search for Another Location

Airport or City:

Trip Planner

Search our weather history database for the weather conditions in past years. The results will help you decide how hot, cold, wet, or windy it might be!

Date:

Astronomy

Nov. 21, 2013 Rise Set
Actual Time 8:01 AM GMT 3:56 PM GMT
Civil Twilight 7:18 AM GMT 4:39 PM GMT
Nautical Twilight 6:31 AM GMT 5:26 PM GMT
Astronomical Twilight 5:47 AM GMT 6:10 PM GMT
Moon 7:24 PM GMT (11/21) 10:56 AM GMT (11/21)
Length of Visible Light 9h 21m
Length of Day
7h 54m
Waning Gibbous, 87% of the Moon is Illuminated
Nov 21
Waning Gibbous
Nov 25
Last Quarter
Dec 3
New
Dec 9
First Quarter
Dec 17
Full

Hourly Weather History & Observations

Time (GMT) Temp. Windchill Dew Point Humidity Pressure Visibility Wind Dir Wind Speed Gust Speed Precip Events Conditions
12:20 AM 39.2 °F 32.5 °F 30.2 °F 70% 29.80 in 6.2 mi NNW 10.4 mph - N/A   Mostly Cloudy
12:50 AM 39.2 °F 32.0 °F 30.2 °F 70% 29.80 in 6.2 mi North 11.5 mph - N/A   Overcast
1:20 AM 39.2 °F 33.6 °F 30.2 °F 70% 29.83 in 6.2 mi North 8.1 mph - N/A   Mostly Cloudy
1:50 AM 39.2 °F 33.6 °F 30.2 °F 70% 29.83 in 6.2 mi North 8.1 mph - N/A   Overcast
2:20 AM 39.2 °F 34.2 °F 30.2 °F 70% 29.86 in 6.2 mi North 6.9 mph - N/A   Mostly Cloudy
2:50 AM 39.2 °F 34.2 °F 30.2 °F 70% 29.86 in 6.2 mi NNW 6.9 mph - N/A   Overcast
3:20 AM 39.2 °F 33.6 °F 30.2 °F 70% 29.86 in 6.2 mi NNW 8.1 mph - N/A   Overcast
3:50 AM 37.4 °F 31.4 °F 30.2 °F 75% 29.86 in 6.2 mi NNW 8.1 mph - N/A   Overcast
4:20 AM 37.4 °F 32.1 °F 30.2 °F 75% 29.86 in 6.2 mi North 6.9 mph - N/A   Overcast
4:50 AM 37.4 °F 33.8 °F 30.2 °F 75% 29.89 in 6.2 mi North 4.6 mph - N/A   Mostly Cloudy
5:20 AM 37.4 °F 32.8 °F 30.2 °F 75% 29.89 in 6.2 mi North 5.8 mph - N/A   Overcast
5:50 AM 37.4 °F 32.1 °F 28.4 °F 70% 29.89 in 6.2 mi NNE 6.9 mph - N/A   Overcast
6:20 AM 37.4 °F 32.1 °F 28.4 °F 70% 29.89 in 6.2 mi North 6.9 mph - N/A   Overcast
6:50 AM 37.4 °F 32.1 °F 28.4 °F 70% 29.92 in 6.2 mi North 6.9 mph - N/A   Mostly Cloudy
7:20 AM 37.4 °F 32.1 °F 28.4 °F 70% 29.92 in 6.2 mi North 6.9 mph - N/A   Mostly Cloudy
7:50 AM 37.4 °F 32.1 °F 28.4 °F 70% 29.95 in - North 6.9 mph - N/A   Clear
8:20 AM 37.4 °F 32.8 °F 28.4 °F 70% 29.95 in - North 5.8 mph - N/A   Clear
8:50 AM 37.4 °F 33.8 °F 28.4 °F 70% 29.98 in - North 4.6 mph - N/A   Clear
9:20 AM 37.4 °F 33.8 °F 28.4 °F 70% 29.98 in - North 4.6 mph - N/A   Clear
9:50 AM 39.2 °F 35.9 °F 30.2 °F 70% 29.98 in - North 4.6 mph - N/A   Clear
10:20 AM 39.2 °F 34.2 °F 30.2 °F 70% 29.98 in - North 6.9 mph - N/A   Clear
10:50 AM 39.2 °F 33.6 °F 30.2 °F 70% 30.01 in - North 8.1 mph - N/A   Clear
11:20 AM 39.2 °F 33.6 °F 30.2 °F 70% 30.01 in - North 8.1 mph - N/A   Clear
11:50 AM 41.0 °F 35.8 °F 30.2 °F 65% 30.01 in - North 8.1 mph - N/A   Clear
12:20 PM 39.2 °F 33.6 °F 30.2 °F 70% 30.01 in - North 8.1 mph - N/A   Clear
12:50 PM 41.0 °F 36.4 °F 28.4 °F 61% 30.01 in - North 6.9 mph - N/A   Clear
1:20 PM 41.0 °F 37.1 °F 30.2 °F 65% 30.01 in - North 5.8 mph - N/A   Clear
1:50 PM 41.0 °F 36.4 °F 28.4 °F 61% 30.01 in - NNE 6.9 mph - N/A   Clear
2:20 PM 39.2 °F 35.9 °F 28.4 °F 65% 30.01 in - North 4.6 mph - N/A   Clear
2:50 PM 39.2 °F 35.0 °F 30.2 °F 70% 30.01 in - North 5.8 mph - N/A   Clear
3:20 PM 37.4 °F 33.8 °F 28.4 °F 70% 30.04 in - North 4.6 mph - N/A   Clear
3:50 PM 35.6 °F 32.8 °F 28.4 °F 75% 30.04 in - North 3.5 mph - N/A   Clear
4:20 PM 35.6 °F - 28.4 °F 75% 30.04 in - North 2.3 mph - N/A   Clear
4:50 PM 32.0 °F - 28.4 °F 87% 30.06 in - Calm Calm - N/A   Clear
5:20 PM 32.0 °F 28.7 °F 26.6 °F 80% 30.06 in - Variable 3.5 mph - N/A   Clear
5:50 PM 32.0 °F - 28.4 °F 87% 30.06 in - Variable 2.3 mph - N/A   Clear
6:20 PM 32.0 °F - 28.4 °F 87% 30.09 in - Calm Calm - N/A   Clear
6:50 PM 32.0 °F - 28.4 °F 87% 30.09 in - Calm Calm - N/A   Clear
7:20 PM 33.8 °F - 28.4 °F 81% 30.09 in - Variable 2.3 mph - N/A   Clear
7:50 PM 33.8 °F - 28.4 °F 81% 30.09 in - Calm Calm - N/A   Clear
8:20 PM 32.0 °F - 28.4 °F 87% 30.12 in 6.2 mi Variable 2.3 mph - N/A   Unknown
8:50 PM 32.0 °F 28.7 °F 28.4 °F 87% 30.12 in - SW 3.5 mph - N/A   Clear
9:20 PM 30.2 °F 26.7 °F 26.6 °F 86% 30.12 in - Variable 3.5 mph - N/A   Clear
9:50 PM 30.2 °F - 26.6 °F 86% 30.12 in 6.2 mi Variable 2.3 mph - N/A   Unknown
10:20 PM 28.4 °F - 26.6 °F 93% 30.12 in - Variable 2.3 mph - N/A   Clear
10:50 PM 26.6 °F 22.6 °F 24.8 °F 93% 30.12 in - West 3.5 mph - N/A   Clear
11:20 PM 28.4 °F - 26.6 °F 93% 30.15 in - WSW 2.3 mph - N/A   Clear
11:50 PM 26.6 °F - 24.8 °F 93% 30.15 in 6.2 mi Variable 2.3 mph - N/A   Mostly Cloudy